Tracking 18980 objects as of 22-Feb-2018
HD Live streaming from Space Station
objects crossing your sky now

FENGYUN 1C DEB

Track FENGYUN 1C DEB now!
10-day predictions


NORAD ID: 30578
Int'l Code: 1999-025ALU
Perigee: 798.3 km
Apogee: 872.7 km
Inclination: 99.0 °
Period: 101.5 minutes
Semi major axis: 7206 km
RCS: 0.047 m2 (small)
Launch date: May 10, 1999
Source: People's Republic of China (PRC)
Launch site: Taiyaun Space Center, China (TSC)

Note: This is SATELLITE DEBRIS
aabbcc
Your satellite tracking list
Your tracking list is empty




NASA's NSSDC Master Catalog

Two Line Element Set (TLE):
1 30578U 99025ALU 18052.76639391  .00001315  00000-0  64230-3 0  9996
2 30578  99.0238 113.6736 0051643 347.6277 130.1265 14.19105429568012
Source of the keplerian elements: AFSPC